Flagstaff, AZ

7:45 AM MST on April 22, 2018 (GMT -0700)
Flagstaff Pulliam

Weather History for KFLG - April, 2012

Change the Weather History Date:

Monday, April 30, 2012

  Actual Average Record
Temperature  
Mean Temperature 51 °F 47 °F  
Max Temperature 69 °F 63 °F 78 °F (1981)
Min Temperature 32 °F 32 °F 10 °F (1967)
Degree Days  
Heating Degree Days 14 18  
Month to date heating degree days 572 650  
Since 1 July heating degree days 6109 6356  
Cooling Degree Days 0 0  
Month to date cooling degree days 0 0  
Year to date cooling degree days 0 0  
Moisture  
Dew Point 23 °F    
Average Humidity 44    
Maximum Humidity 72    
Minimum Humidity 15    
Precipitation  
Precipitation 0.00 in 0.03 in 0.78 in (1954)
Month to date precipitation 1.24 1.15  
Year to date precipitation 4.46 7.48  
Snow  
Snow 0.00 in 0.20 in 990.00 in (1999)
Month to date snowfall 10.4 7.1  
Since 1 July snowfall 102.9 101.0  
Snow Depth 0.00 in    
Sea Level Pressure  
Sea Level Pressure 29.93 in    
Wind  
Wind Speed 6 mph (SW)    
Max Wind Speed 22 mph    
Max Gust Speed 32 mph    
Visibility 10 miles    
Events      
T = Trace of Precipitation, MM = Missing Value Source: NWS Daily Summary

Daily Weather History Graph

Daily Weather History Graph

Search for Another Location

Airport or City:

Astronomy

Apr. 30, 2012 Rise Set
Actual Time 5:36 AM MST 7:12 PM MST
Civil Twilight 5:09 AM MST 7:39 PM MST
Nautical Twilight 4:36 AM MST 8:11 PM MST
Astronomical Twilight 4:02 AM MST 8:46 PM MST
Moon 1:26 PM MST (4/30) 1:48 AM MST (4/30)
Length of Visible Light 14h 30m
Length of Day
13h 36m
Waxing Gibbous, 65% of the Moon is Illuminated
Apr 30
Waxing Gibbous
May 5
Full
May 12
Last Quarter
May 20
New
May 28
First Quarter

Hourly Weather History & Observations

Time (MST) Temp. Dew Point Humidity Pressure Visibility Wind Dir Wind Speed Gust Speed Precip Events Conditions
12:57 AM 35.1 °F 25.0 °F 67% 29.97 in 10.0 mi Calm Calm - N/A   Clear
1:57 AM 35.1 °F 26.1 °F 70% 29.95 in 10.0 mi Calm Calm - N/A   Clear
2:57 AM 35.1 °F 24.1 °F 64% 29.96 in 10.0 mi Calm Calm - N/A   Clear
3:57 AM 36.0 °F 24.1 °F 62% 29.94 in 10.0 mi Calm Calm - N/A   Clear
4:57 AM 33.1 °F 25.0 °F 72% 29.96 in 10.0 mi Calm Calm - N/A   Clear
5:57 AM 32.0 °F 24.1 °F 73% 29.98 in 10.0 mi Calm Calm - N/A   Clear
6:57 AM 42.1 °F 28.9 °F 60% 29.97 in 10.0 mi Calm Calm - N/A   Clear
7:57 AM 55.9 °F 30.0 °F 37% 29.96 in 10.0 mi Calm Calm - N/A   Clear
8:57 AM 61.0 °F 21.0 °F 21% 29.94 in 10.0 mi SSW 8.1 mph - N/A   Clear
9:57 AM 63.0 °F 19.0 °F 18% 29.96 in 10.0 mi West 9.2 mph - N/A   Clear
10:57 AM 63.0 °F 19.9 °F 19% 29.97 in 10.0 mi SSW 6.9 mph - N/A   Clear
11:57 AM 64.9 °F 19.9 °F 18% 29.97 in 10.0 mi West 8.1 mph 19.6 mph N/A   Clear
12:57 PM 66.9 °F 21.9 °F 18% 29.96 in 10.0 mi SW 16.1 mph 20.7 mph N/A   Clear
1:57 PM 66.9 °F 17.1 °F 15% 29.95 in 10.0 mi WSW 16.1 mph 20.7 mph N/A   Clear
2:57 PM 66.9 °F 17.1 °F 15% 29.92 in 10.0 mi SW 13.8 mph 23.0 mph N/A   Clear
3:57 PM 66.9 °F 18.0 °F 15% 29.90 in 10.0 mi WSW 11.5 mph 23.0 mph N/A   Clear
4:57 PM 68.0 °F 19.0 °F 15% 29.90 in 10.0 mi WSW 11.5 mph 19.6 mph N/A   Clear
5:57 PM 64.9 °F 25.0 °F 22% 29.91 in 10.0 mi SSW 17.3 mph 25.3 mph N/A   Clear
6:57 PM 61.0 °F 28.0 °F 29% 29.89 in 10.0 mi WSW 9.2 mph - N/A   Clear
7:57 PM 57.9 °F 24.1 °F 27% 29.86 in 10.0 mi WSW 6.9 mph - N/A   Clear
8:57 PM 53.1 °F 25.0 °F 34% 29.87 in 10.0 mi SSW 4.6 mph - N/A   Clear
9:57 PM 48.0 °F 26.1 °F 42% 29.88 in 10.0 mi Calm Calm - N/A   Clear
10:57 PM 45.0 °F 27.0 °F 49% 29.88 in 10.0 mi Calm Calm - N/A   Clear
11:57 PM 42.1 °F 27.0 °F 55% 29.86 in 10.0 mi Calm Calm - N/A   Clear